User: anonymous   Login
Location: Unspecified
(0.0000°N, 0.0000°E)
Time: 11:14:44
(UTC+00:00)
Language:

Falcon 1 - Orbit

View from above orbital plane
View from above orbital plane
View from above satellite
View from above satellite

Ground track
Ground track

The orbit data is extracted from the following two-line orbital elements,

1 33393U 08048A   19286.98252192  .00000831  00000-0  21942-4 0  9999
2 33393   9.3458 107.2506 0012369 107.8290 252.3259 14.84769870599073
Epoch (UTC): 13 October 2019 23:34:49
Eccentricity: 0.0012369
inclination: 9.3458°
perigee height: 605 km
apogee height: 623 km
right ascension of ascending node: 107.2506°
argument of perigee: 107.8290°
revolutions per day: 14.84769870
mean anomaly at epoch: 252.3259°
orbit number at epoch: 59907

The dashed part of the orbit path shows where the satellite is in the earth's shadow,  

DLR